Lid_Strength_Index
14 12 12 13 13 12 14 14 16 14 14 12 11 12 11 9 9 8 7 6 6 6 7 7 6 5 5 3 2 2 2 2 2 2 2 2 2 1 1 1 1 1 1 1
15 12 12 13 13 12 12 11 12 12 12 9 9 10 11 10 10 9 9 7 7 6 6 8 6 6 5 4 3 3 3 2 2 2 2 2 2 2 2 1 1 1 1 1
18 13 13 16 12 12 11 10 11 14 12 9 9 10 10 10 10 9 10 8 7 6 6 7 7 6 6 6 4 5 3 3 2 2 2 2 2 2 2 2 2 2 2 2
16 14 19 12 9 9 10 10 10 11 10 9 8 7 7 7 8 8 9 9 9 7 7 6 6 7 7 8 7 5 4 3 3 2 2 2 2 2 2 2 2 2 2 2
17 16 13 12 10 11 11 12 9 10 9 8 7 7 8 7 6 6 6 7 8 7 7 6 7 7 7 8 8 6 6 5 4 2 2 2 3 2 2 2 2 3 2 3
15 17 19 12 8 7 7 14 9 9 9 9 8 11 10 7 6 6 5 6 6 7 7 7 8 7 7 8 9 8 7 6 5 4 4 3 3 3 2 2 2 2 3 3
15 16 13 9 7 7 14 14 8 8 8 8 9 8 7 7 8 7 6 5 6 6 7 8 8 7 8 9 9 8 7 6 6 6 7 8 3 3 2 2 4 5 5 6
14 16 17 7 8 12 9 7 7 7 7 7 7 7 7 8 8 8 9 8 7 6 7 6 7 8 8 8 8 7 7 7 7 7 7 8 9 8 6 6 8 10 12 15
13 13 7 6 7 6 6 7 7 6 6 7 7 7 7 8 8 8 9 9 9 9 8 7 6 7 9 9 8 8 8 8 7 7 8 8 9 10 11 11 11 13 12 14
10 8 8 7 6 6 6 6 6 5 6 6 7 7 8 8 8 8 8 9 9 9 10 10 10 8 7 8 8 7 8 8 8 7 8 8 10 10 11 13 15 15 15 16
10 8 8 6 6 6 5 5 6 6 7 7 7 8 8 8 8 8 9 9 9 10 11 11 11 11 10 10 9 10 8 8 8 7 7 9 12 13 11 12 14 13 15 15
11 7 7 7 5 5 6 6 7 7 7 7 8 8 8 8 8 9 9 9 9 10 10 11 11 11 11 11 10 11 11 9 8 8 8 8 10 13 15 15 15 15 14 15
8 6 6 5 5 5 6 6 6 7 7 8 8 8 8 9 8 9 8 9 10 10 10 10 11 11 11 11 11 11 11 10 9 9 7 8 11 13 13 14 15 14 14 14
5 5 7 6 7 6 6 6 6 7 7 8 8 8 9 9 9 9 9 9 9 9 10 10 11 11 11 11 11 11 12 14 11 10 9 9 8 11 13 13 14 15 15 14
5 6 6 6 6 7 7 7 8 8 8 8 8 9 9 9 9 9 8 8 8 9 10 10 10 11 10 10 12 12 12 13 12 10 10 10 10 10 10 11 12 14 15 16
6 6 7 8 8 8 8 8 8 8 8 9 9 9 9 9 9 9 8 9 10 10 9 10 10 10 9 9 10 11 11 13 13 12 11 11 10 11 12 11 12 11 13 14
8 9 9 9 9 8 8 8 8 9 9 9 9 8 8 9 9 9 9 9 9 9 9 9 10 9 9 9 9 9 10 10 11 11 12 11 10 10 11 11 12 12 11 13
7 7 7 8 8 9 8 8 8 8 9 8 8 8 9 10 10 10 10 9 10 10 9 9 8 9 9 9 9 8 9 9 9 10 9 10 9 8 8 10 10 11 12 13
7 7 7 8 7 8 8 8 8 8 8 9 9 10 9 9 9 9 9 10 10 10 9 8 9 9 9 9 9 8 9 10 10 9 9 9 9 8 7 8 8 9 10 13
7 7 7 7 7 7 7 7 7 8 8 8 9 10 10 10 10 10 10 10 9 9 8 8 8 9 9 9 10 9 10 10 10 9 9 9 9 8 7 8 7 8 10 11
7 7 7 7 7 7 7 7 7 8 8 8 9 10 11 10 10 10 10 11 9 8 8 9 9 9 9 9 9 10 10 10 10 10 10 10 9 9 9 7 7 9 10 10
7 7 7 7 7 7 6 6 7 8 7 8 8 9 10 10 10 10 9 10 8 9 9 9 9 9 9 10 10 10 10 11 10 10 10 10 10 10 9 8 8 9 9 10
8 8 8 9 8 7 7 7 10 9 8 8 8 8 9 9 9 11 11 8 9 9 9 9 9 10 10 10 10 10 11 11 11 11 11 10 9 9 9 9 9 8 9 9
9 10 9 8 8 8 9 8 10 8 7 7 7 7 8 8 8 8 8 9 9 9 9 10 10 10 10 10 10 11 11 11 12 11 11 11 10 9 8 8 8 8 8 8
11 11 8 10 10 9 9 10 10 8 8 7 7 7 7 7 8 8 8 9 9 9 9 9 10 10 10 10 10 11 11 11 12 12 11 11 10 10 9 8 8 8 8 8
9 9 10 12 11 11 11 10 11 10 10 9 8 7 6 7 7 8 9 9 9 9 9 9 9 9 9 10 10 11 11 11 11 10 10 10 10 9 8 8 8 8 8 8
11 12 12 13 12 12 12 12 12 12 11 11 10 8 6 7 8 9 9 9 9 9 10 9 9 9 10 10 11 11 11 11 10 9 10 9 9 9 8 8 8 8 8 8